Weather History for GMFM - February, 2013

Change the Weather History Date:

Sunday, February 24, 2013

  Actual Average Record
Temperature  
Mean Temperature 50 °F -  
Max Temperature 55 °F - - ()
Min Temperature 42 °F - - ()
Degree Days  
Heating Degree Days 16    
Moisture  
Dew Point 42 °F    
Average Humidity 78    
Maximum Humidity 93    
Minimum Humidity 54    
Precipitation  
Precipitation 0.00 in - - ()
Sea Level Pressure  
Sea Level Pressure 30.18 in    
Wind  
Wind Speed 7 mph ()    
Max Wind Speed 12 mph    
Max Gust Speed -    
Visibility 4.6 miles    
Events Rain    
T = Trace of Precipitation, MM = Missing Value Source: Averaged Metar Reports

Daily Weather History Graph

Daily Weather History Graph

Search for Another Location

Airport or City:

Trip Planner

Search our weather history database for the weather conditions in past years. The results will help you decide how hot, cold, wet, or windy it might be!

Date:

Astronomy

Feb. 24, 2013 Rise Set
Actual Time 6:56 AM WET 6:14 PM WET
Civil Twilight 6:31 AM WET 6:39 PM WET
Nautical Twilight 6:02 AM WET 7:08 PM WET
Astronomical Twilight 5:33 AM WET 7:37 PM WET
Moon 5:11 PM WET (2/24) 5:44 AM WET (2/24)
Length of Visible Light 12h 08m
Length of Day
11h 17m
Waxing Gibbous, 98% of the Moon is Illuminated
Feb 24
Waxing Gibbous
Feb 25
Full
Mar 4
Last Quarter
Mar 11
New
Mar 19
First Quarter

Hourly Weather History & Observations

Time (WET) Temp. Windchill Dew Point Humidity Pressure Visibility Wind Dir Wind Speed Gust Speed Precip Events Conditions
12:00 AM 47 °F - 45 °F 91% 30.19 in 4 mi West 10.4 mph - -   Mostly Cloudy
12:00 AM 46.4 °F 41.5 °F 44.6 °F 93% 30.15 in 3.7 mi West 10.4 mph - N/A Rain Rain
1:00 AM 46.4 °F 42.9 °F 44.6 °F 93% 30.18 in 3.7 mi West 6.9 mph - N/A   Mostly Cloudy
2:00 AM 46.4 °F 42.9 °F 44.6 °F 93% 30.18 in 3.7 mi West 6.9 mph - N/A   Mostly Cloudy
3:00 AM 46 °F - 44 °F 88% 30.19 in 4 mi West 6.9 mph - - Rain Light Rain
3:00 AM 46.4 °F 42.9 °F 42.8 °F 87% 30.15 in 3.7 mi West 6.9 mph - N/A Rain Rain
5:00 AM 44.6 °F 40.7 °F 42.8 °F 93% 30.15 in 3.7 mi WSW 6.9 mph - N/A   Mostly Cloudy
6:00 AM 45 °F - 43 °F 89% 30.19 in 4 mi WSW 5.8 mph - -   Partly Cloudy
6:00 AM 44.6 °F 41.4 °F 42.8 °F 93% 30.15 in 3.7 mi SW 5.8 mph - N/A   Mostly Cloudy
7:00 AM 44.6 °F 40.7 °F 41.0 °F 87% 30.18 in 3.7 mi West 6.9 mph - N/A   Mostly Cloudy
8:00 AM 44.6 °F 41.4 °F 42.8 °F 93% 30.18 in 5.0 mi SW 5.8 mph - N/A   Mostly Cloudy
9:00 AM 47 °F - 42 °F 77% 30.24 in 5 mi SW 6.9 mph - -   Mostly Cloudy
9:00 AM 48.2 °F - 42.8 °F 82% 30.21 in 5.0 mi SW 6.9 mph - N/A   Mostly Cloudy
10:00 AM 50.0 °F - 41.0 °F 71% 30.21 in 5.0 mi WSW 8.1 mph - N/A   Mostly Cloudy
11:00 AM 51.8 °F - 39.2 °F 62% 30.21 in 5.0 mi West 9.2 mph - N/A   Mostly Cloudy
12:00 PM 51 °F - 40 °F 57% 30.21 in 5 mi WSW 9.2 mph - -   Mostly Cloudy
12:00 PM 50.0 °F - 41.0 °F 71% 30.21 in 5.0 mi WSW 9.2 mph - N/A   Mostly Cloudy
1:00 PM 53.6 °F - 41.0 °F 62% 30.18 in 5.0 mi WSW 10.4 mph - N/A   Mostly Cloudy
2:00 PM 55.4 °F - 41.0 °F 58% 30.15 in 5.0 mi West 9.2 mph - N/A   Mostly Cloudy
3:00 PM 53 °F - 41 °F 54% 30.16 in 5 mi West 11.5 mph - -   Mostly Cloudy
3:00 PM 53.6 °F - 41.0 °F 62% 30.15 in 5.0 mi West 11.5 mph - N/A   Mostly Cloudy
4:00 PM 53.6 °F - 41.0 °F 62% 30.15 in 5.0 mi WNW 11.5 mph - N/A   Mostly Cloudy
5:00 PM 51.8 °F - 42.8 °F 71% 30.15 in 5.0 mi WNW 10.4 mph - N/A   Mostly Cloudy
6:00 PM 49 °F - 42 °F 70% 30.17 in 5 mi WNW 5.8 mph - -   Mostly Cloudy
6:00 PM 50.0 °F - 42.8 °F 76% 30.15 in 5.0 mi WNW 5.8 mph - N/A   Mostly Cloudy
7:00 PM 46.4 °F 45.2 °F 41.0 °F 81% 30.15 in 5.0 mi WNW 3.5 mph - N/A   Mostly Cloudy
8:00 PM 46.4 °F 45.2 °F 42.8 °F 87% 30.18 in 5.0 mi NW 3.5 mph - N/A   Mostly Cloudy
9:00 PM 45 °F - 40 °F 75% 30.23 in 5 mi West 5.8 mph - -   Mostly Cloudy
9:00 PM 44.6 °F 41.4 °F 39.2 °F 81% 30.18 in 5.0 mi West 5.8 mph - N/A   Mostly Cloudy
10:00 PM 44.6 °F 40.7 °F 39.2 °F 81% 30.21 in 5.0 mi West 6.9 mph - N/A   Mostly Cloudy
11:00 PM 42.8 °F 39.3 °F 37.4 °F 81% 30.21 in 5.0 mi West 5.8 mph - N/A   Mostly Cloudy